STARLINK-4336, 53051

Orbit data source: Space-Track

STARLINK-4336, 53051 is a payload satellite owned by SpaceX/Seattle (US) in SSO that was launched on Mon, 11 Jul 2022 UTC via an FALCON 9 launch vehicle from the Air Force Western Test Range (AFWTR). Payload-class satellites include a variety of spacecraft equipped with specific instruments for various scientific and technological missions. These include communications satellites like Starlink; space stations such as the ISS; scientific satellites like the Hubble; Earth observation satellites from companies like Planet Labs, Umbra, and HawkEye 360; GPS; miniature CubeSats for education and research; and military/defense satellites.

Loading next visibility...
Identifier
53051, 2022-077J
Orbit
SSO
Country
Flag of USUS
Related business
Manufacturer
SpaceX/Seattle
Mission
Operational Commercial Communications
Bus & Motor
STARLINK, Unknown motor
Mass
297 kg wet, ~275 kg dry
Launch date (UTC)
2022-07-11 (3 years ago)
Launch vehicle
FALCON 9
Launch site
Air Force Western Test Range (AFWTR)
Object type
Payload
Rocket body
Debris
Shape & HBR
Box + 1 Pan, 10.1 m
Radar Cross Section
13.562 m², Large (>1 m²)

Expand to show TLE details & history
Last TLE update: 20 hours ago

TLE from 20 hours ago
0 STARLINK-4336
1 53051U 22077J   25348.78695707  .00003689  00000-0  29163-3 0  9993
2 53051  97.6035 167.0821 0001564  90.5121 269.6282 15.01251417188172
Epoch: 2025-12-14T18:53Z
TLE epoch observation values (Epoch: 2025-12-14T18:53:13.090Z)
Latitude
-0.00011°
Longitude
160.0827°
Altitude
566.103 km
Speed
7.578 km/s
True Right ascension
11h 08m 19s
True Declination
0° 00' 00"
Sunlit
Object was in daylight at epoch
Visualization orbit readout
Latitude
Unknown
Longitude
Unknown
Altitude
Unknown
Speed
Unknown
Apparent Right ascension
Unknown
Apparent Declination
Unknown
Sunlit
N/A
Visualization observer readout
Local Sidereal Time
13:19:50
Azimuth
Unknown
Elevation
Unknown
Doppler factor
Unknown
Orbital elements
Apogee altitude
561.121 km
Perigee altitude
558.951 km
Semi-major axis
6,938.173 km
Eccentricity
0.00016
Inclination
97.6035°
RAAN
167.0821°
Arg. of periapsis
90.5121°
True anomaly
269.61028°
Mean anomaly
269.6282°
Eccentric anomaly
269.61924°
Mean motion
3.75557 °/min
Orbital period
95.86 mins
BSTAR
0.00029163
Loading maneuver chart data...
Computing Atmospheric mass density...
Loading historical data...
Loading historical data...
Loading historical data...
Loading historical data...
Loading historical data...
Loading historical data...
Loading historical data...

Documentation

Showing up to 5 results
|